GW1738 Weather Reports


time (UTC)temp
C
wind
direction
speed
KPH
gust
KPH
rain 1hr
cm
rain 24hr
cm
rain mn
cm
humidity
%
barometer
mb
20260502170334 12 254 0.0 1.6 0.00 0.00 0.00 61 1014.3
20260502164321 12 267 0.0 3.2 0.00 0.00 0.00 57 1014.4
20260502163345 12 320 1.6 9.7 0.00 0.00 0.00 55 1014.3
20260502162326 12 49 1.6 3.2 0.00 0.00 0.00 57 1014.4
20260502161402 12 184 1.6 4.8 0.00 0.00 0.00 56 1014.3
20260502160324 12 31 1.6 4.8 0.00 0.00 0.00 60 1014.4
20260502152336 12 253 1.6 4.8 0.00 0.00 0.00 61 1014.5
20260502151322 12 249 3.2 11.3 0.00 0.00 0.00 62 1014.4
20260502150319 12 5 1.6 4.8 0.00 0.00 0.00 64 1014.3
20260502130331 11 120 1.6 4.8 0.00 0.00 0.00 75 1013.9
20260502123317 11 132 0.0 3.2 0.00 0.00 0.00 82 1013.6
20260502122338 10 159 0.0 3.2 0.00 0.00 0.00 86 1013.3
20260502121345 10 248 1.6 4.8 0.00 0.00 0.00 88 1013.2
20260502120326 10 30 0.0 1.6 0.00 0.00 0.00 93 1012.9
20260502115327 9 33 0.0 0.0 0.00 0.00 0.00 94 1013.0
20260502113329 9 33 0.0 0.0 0.00 0.00 0.00 95 1013.1
20260502112349 9 33 0.0 0.0 0.00 0.00 0.00 95 1013.1
20260502111334 8 42 0.0 0.0 0.00 0.00 0.00 95 1013.0
20260502110318 8 42 0.0 0.0 0.00 0.00 0.00 95 1013.2
20260502105334 8 42 0.0 0.0 0.00 0.00 0.00 95 1013.3
20260502104337 8 42 0.0 0.0 0.00 0.00 0.00 95 1013.3
20260502103321 8 42 0.0 0.0 0.00 0.00 0.00 94 1013.1
20260502102323 8 42 0.0 0.0 0.00 0.00 0.00 94 1013.0
20260502101333 8 42 0.0 0.0 0.00 0.00 0.00 94 1012.9
20260502100338 8 42 0.0 0.0 0.00 0.00 0.00 94 1012.8
20260502091338 8 42 0.0 0.0 0.00 0.00 0.00 93 1012.5
20260502090342 8 42 0.0 0.0 0.00 0.00 0.00 93 1012.6
20260502071324 10 42 0.0 0.0 0.00 0.00 0.00 89 1012.1
20260502070359 10 42 0.0 0.0 0.00 0.00 0.00 88 1012.0
20260502065322 10 42 0.0 0.0 0.00 0.00 0.00 88 1012.0
20260502064323 10 42 0.0 1.6 0.00 0.00 0.00 87 1012.1
20260502063325 10 42 0.0 1.6 0.00 0.00 0.00 87 1012.1
20260502062327 10 42 0.0 0.0 0.00 0.00 0.00 86 1012.0
20260502061333 10 42 0.0 0.0 0.00 0.00 0.00 86 1012.1
20260502060337 10 42 0.0 0.0 0.00 0.00 0.00 85 1012.2
20260502055320 10 42 0.0 0.0 0.00 0.00 0.00 84 1012.2
20260502054322 11 42 0.0 0.0 0.00 0.00 0.00 84 1012.4
20260502053325 11 42 0.0 0.0 0.00 0.00 0.00 83 1012.4
20260502052329 11 42 0.0 0.0 0.00 0.00 0.00 82 1012.5
20260502051336 11 42 0.0 0.0 0.00 0.00 0.00 82 1012.6
20260502050355 11 42 0.0 0.0 0.00 0.00 0.00 81 1012.7
20260502045336 11 42 0.0 0.0 0.00 0.00 0.00 81 1012.8
20260502044339 11 42 0.0 0.0 0.00 0.00 0.00 80 1012.8
20260502043341 11 42 0.0 1.6 0.00 0.00 0.00 80 1012.9
20260502042323 12 42 0.0 0.0 0.00 0.00 0.00 79 1013.0
20260502041329 12 42 0.0 3.2 0.00 0.00 0.00 79 1013.0
20260502040330 12 106 0.0 3.2 0.00 0.00 0.00 78 1013.0
20260502035332 12 67 0.0 1.6 0.00 0.00 0.00 78 1013.0
20260502034336 12 62 0.0 3.2 0.00 0.00 0.00 77 1012.9
20260502033318 12 153 0.0 1.6 0.00 0.00 0.00 77 1012.9
20260502032342 12 153 0.0 1.6 0.00 0.00 0.00 76 1012.9
20260502031330 12 153 0.0 1.6 0.00 0.00 0.00 75 1012.8
20260502030316 12 153 0.0 0.0 0.00 0.00 0.00 75 1012.6
20260502025343 12 153 0.0 1.6 0.00 0.00 0.00 74 1012.5
20260502024327 12 153 0.0 3.2 0.00 0.00 0.00 74 1012.5
20260502023349 13 11 0.0 3.2 0.00 0.00 0.00 73 1012.7
20260502022332 13 40 0.0 0.0 0.00 0.00 0.00 73 1012.9
20260502021339 13 40 0.0 0.0 0.00 0.00 0.00 71 1012.7
20260502020322 13 40 0.0 1.6 0.00 0.00 0.00 71 1012.7
20260502015325 13 40 0.0 1.6 0.00 0.00 0.00 71 1012.8
20260502014348 13 40 0.0 1.6 0.00 0.00 0.00 71 1012.7
20260502013349 13 40 0.0 1.6 0.00 0.00 0.00 71 1012.5
20260502012325 13 43 0.0 3.2 0.00 0.00 0.00 70 1012.4
20260502011332 13 174 0.0 0.0 0.00 0.00 0.00 69 1012.2
20260502010335 13 174 0.0 0.0 0.00 0.00 0.00 68 1012.1
20260502005319 13 174 0.0 0.0 0.00 0.00 0.00 67 1012.0
20260502004351 14 174 0.0 0.0 0.00 0.00 0.00 65 1011.8
20260502003335 14 174 0.0 0.0 0.00 0.00 0.00 63 1011.6
20260502002338 15 174 0.0 0.0 0.00 0.00 0.00 61 1011.7
20260502001325 15 174 0.0 0.0 0.00 0.00 0.00 59 1011.6
20260502000328 15 174 0.0 0.0 0.00 0.00 0.00 57 1011.7
20260501235350 16 174 0.0 0.0 0.00 0.00 0.00 55 1011.7
20260501234332 16 174 0.0 0.0 0.00 0.00 0.00 53 1011.7
20260501233331 16 174 0.0 0.0 0.00 0.00 0.00 52 1011.5
20260501232335 17 174 0.0 1.6 0.00 0.00 0.00 50 1011.3
20260501231323 17 174 0.0 1.6 0.00 0.00 0.00 49 1011.5
20260501230346 17 174 0.0 3.2 0.00 0.00 0.00 48 1011.5
20260501225324 17 190 0.0 3.2 0.00 0.00 0.00 46 1011.6
20260501224328 18 163 1.6 8.0 0.00 0.00 0.00 46 1011.7
20260501223331 18 175 0.0 4.8 0.00 0.00 0.00 47 1011.7
20260501222337 18 225 0.0 3.2 0.00 0.00 0.00 49 1011.7
20260501221326 18 229 1.6 3.2 0.00 0.00 0.00 46 1011.8
20260501220331 18 360 0.0 3.2 0.00 0.00 0.00 45 1011.9
20260501215335 18 184 0.0 3.2 0.00 0.00 0.00 45 1011.8
20260501214318 18 242 1.6 3.2 0.00 0.00 0.00 43 1011.8
20260501213320 18 254 1.6 4.8 0.00 0.00 0.00 43 1011.7
20260501212320 18 188 0.0 3.2 0.00 0.00 0.00 46 1011.6
20260501211326 18 132 0.0 4.8 0.00 0.00 0.00 42 1011.7
20260501210350 18 306 1.6 9.7 0.00 0.00 0.00 42 1011.6
20260501205330 18 31 3.2 6.4 0.00 0.00 0.00 44 1011.6
20260501204333 18 184 1.6 8.0 0.00 0.00 0.00 43 1011.8
20260501203317 18 159 0.0 3.2 0.00 0.00 0.00 45 1012.0
20260501202338 18 199 1.6 9.7 0.00 0.00 0.00 42 1012.2
20260501201326 18 126 1.6 11.3 0.00 0.00 0.00 42 1012.4
20260501200330 18 69 3.2 9.7 0.00 0.00 0.00 38 1012.4
20260501195347 18 260 1.6 4.8 0.00 0.00 0.00 40 1012.6
20260501194326 18 263 1.6 6.4 0.00 0.00 0.00 43 1012.7
20260501193349 18 153 1.6 4.8 0.00 0.00 0.00 43 1012.8
20260501192331 18 195 1.6 6.4 0.00 0.00 0.00 41 1013.0
20260501191337 18 120 1.6 8.0 0.00 0.00 0.00 41 1013.1
20260501190316 18 69 3.2 8.0 0.00 0.00 0.00 41 1013.4
20260501185348 18 96 1.6 6.4 0.00 0.00 0.00 40 1013.5
20260501184328 18 91 3.2 4.8 0.00 0.00 0.00 42 1013.9
20260501183329 18 178 1.6 6.4 0.00 0.00 0.00 39 1014.1
20260501182352 18 207 1.6 6.4 0.00 0.00 0.00 43 1014.0
20260501181402 18 202 1.6 9.7 0.00 0.00 0.00 44 1014.2
20260501180324 18 141 1.6 6.4 0.00 0.00 0.00 40 1014.3
20260501175324 18 271 1.6 3.2 0.00 0.00 0.00 40 1014.3
20260501174327 18 192 1.6 4.8 0.00 0.00 0.00 42 1014.5
20260501173330 17 82 1.6 4.8 0.00 0.00 0.00 43 1014.5
20260501172333 17 173 1.6 8.0 0.00 0.00 0.00 49 1014.5